User: anonymous   Login
Location: Unspecified
(0.0000°N, 0.0000°E)
Time: 02:31:02
(UTC+02:00)
Language:

Meteor PRIRODA - Orbit

View from above orbital plane
View from above orbital plane
View from above satellite
View from above satellite

Ground track
Ground track

The orbit data is extracted from the following two-line orbital elements,

1 12585U 81065A   15242.48048189  .00001720  00000-0  87539-4 0  9993
2 12585 097.3557 224.4097 0015978 169.0072 304.9891 15.18038311862553
Epoch (UTC): 30 August 2015 11:31:53
Eccentricity: 0.0015978
inclination: 97.3557°
perigee height: 501 km
apogee height: 523 km
right ascension of ascending node: 224.4097°
argument of perigee: 169.0072°
revolutions per day: 15.18038311
mean anomaly at epoch: 304.9891°
orbit number at epoch: 86255

The dashed part of the orbit path shows where the satellite is in the earth's shadow,  

DLR